| time (UTC) | temp F | wind direction | speed knots | gust knots | rain 1hr in | rain 24hr in | rain mn in | humidity % | barometer mb |
| 20260508140050 | 69 | 0 | 0.0 | 2.6 | 0.00 | 0.00 | 0.00 | 91 | 1014.7 |
| 20260508134546 | 68 | 0 | 0.0 | 6.1 | 0.00 | 0.00 | 0.00 | 91 | 1014.6 |
| 20260508133051 | 68 | 60 | 0.9 | 6.1 | 0.00 | 0.00 | 0.00 | 91 | 1014.6 |
| 20260508131548 | 68 | 33 | 2.6 | 6.1 | 0.00 | 0.00 | 0.00 | 91 | 1014.4 |
| 20260508130047 | 67 | 0 | 0.9 | 7.0 | 0.00 | 0.00 | 0.00 | 91 | 1014.2 |
| 20260508124548 | 67 | 98 | 1.7 | 5.2 | 0.00 | 0.00 | 0.00 | 91 | 1014.5 |
| 20260508123051 | 67 | 0 | 0.0 | 7.0 | 0.00 | 0.00 | 0.00 | 91 | 1014.6 |
| 20260508121545 | 66 | 49 | 1.7 | 6.1 | 0.00 | 0.00 | 0.00 | 91 | 1014.3 |
| 20260508120046 | 66 | 57 | 0.0 | 6.1 | 0.00 | 0.00 | 0.00 | 90 | 1014.6 |
| 20260508114602 | 66 | 59 | 0.0 | 5.2 | 0.00 | 0.00 | 0.00 | 90 | 1015.1 |
| 20260508113103 | 66 | 60 | 0.9 | 4.3 | 0.00 | 0.00 | 0.00 | 90 | 1015.3 |
| 20260508111559 | 66 | 0 | 0.9 | 5.2 | 0.00 | 0.00 | 0.00 | 90 | 1015.7 |
| 20260508110044 | 66 | 360 | 0.9 | 3.5 | 0.00 | 0.00 | 0.00 | 89 | 1015.5 |
| 20260508104548 | 66 | 0 | 0.9 | 3.5 | 0.00 | 0.00 | 0.00 | 90 | 1015.5 |
| 20260508103048 | 66 | 15 | 0.9 | 5.2 | 0.00 | 0.00 | 0.00 | 90 | 1015.4 |
| 20260508101545 | 66 | 53 | 0.9 | 3.5 | 0.00 | 0.00 | 0.00 | 89 | 1014.9 |
| 20260508100048 | 66 | 76 | 1.7 | 5.2 | 0.00 | 0.00 | 0.00 | 89 | 1014.7 |
| 20260508094547 | 66 | 35 | 0.9 | 4.3 | 0.00 | 0.00 | 0.00 | 89 | 1014.5 |
| 20260508093051 | 66 | 45 | 1.7 | 4.3 | 0.00 | 0.00 | 0.00 | 89 | 1014.2 |
| 20260508091602 | 66 | 0 | 0.9 | 4.3 | 0.00 | 0.00 | 0.00 | 89 | 1014.2 |
| 20260508090047 | 66 | 0 | 0.0 | 5.2 | 0.00 | 0.00 | 0.00 | 89 | 1014.6 |
| 20260508084548 | 66 | 41 | 1.7 | 3.5 | 0.00 | 0.01 | 0.00 | 89 | 1014.6 |
| 20260508083050 | 66 | 0 | 0.0 | 3.5 | 0.00 | 0.01 | 0.00 | 89 | 1014.3 |
| 20260508081556 | 66 | 0 | 0.0 | 5.2 | 0.00 | 0.01 | 0.00 | 89 | 1014.5 |
| 20260508080048 | 66 | 63 | 0.0 | 3.5 | 0.00 | 0.01 | 0.00 | 89 | 1014.7 |
| 20260508074548 | 66 | 0 | 0.9 | 6.1 | 0.00 | 0.01 | 0.00 | 89 | 1014.5 |
| 20260508073051 | 66 | 34 | 0.9 | 7.8 | 0.00 | 0.01 | 0.00 | 89 | 1013.8 |
| 20260508071546 | 66 | 64 | 0.0 | 4.3 | 0.00 | 0.01 | 0.00 | 89 | 1014.7 |
| 20260508070053 | 66 | 59 | 0.0 | 4.3 | 0.00 | 0.01 | 0.00 | 89 | 1015.7 |
| 20260508064551 | 66 | 44 | 0.0 | 4.3 | 0.00 | 0.01 | 0.00 | 89 | 1015.5 |
| 20260508063048 | 66 | 58 | 0.0 | 4.3 | 0.00 | 0.01 | 0.00 | 89 | 1015.3 |
| 20260508061547 | 66 | 39 | 0.9 | 4.3 | 0.00 | 0.01 | 0.00 | 89 | 1015.3 |
| 20260508060048 | 66 | 56 | 0.0 | 7.8 | 0.00 | 0.01 | 0.00 | 89 | 1015.4 |
| 20260508054549 | 66 | 42 | 0.9 | 4.3 | 0.00 | 0.01 | 0.00 | 88 | 1015.8 |
| 20260508053047 | 66 | 0 | 0.0 | 4.3 | 0.00 | 0.01 | 0.00 | 88 | 1016.4 |
| 20260508051549 | 66 | 22 | 0.0 | 4.3 | 0.00 | 0.01 | 0.00 | 88 | 1016.6 |
| 20260508050053 | 66 | 0 | 0.0 | 2.6 | 0.00 | 0.01 | 0.00 | 88 | 1016.0 |
| 20260508044546 | 65 | 61 | 0.9 | 3.5 | 0.00 | 0.01 | 0.01 | 88 | 1015.8 |
| 20260508043053 | 65 | 39 | 0.0 | 3.5 | 0.00 | 0.01 | 0.01 | 88 | 1016.3 |
| 20260508041548 | 65 | 0 | 0.0 | 2.6 | 0.00 | 0.01 | 0.01 | 88 | 1016.3 |
| 20260508040052 | 65 | 0 | 0.0 | 3.5 | 0.00 | 0.01 | 0.01 | 87 | 1016.2 |
| 20260508034552 | 65 | 35 | 0.0 | 5.2 | 0.00 | 0.01 | 0.01 | 87 | 1016.2 |
| 20260508033048 | 65 | 0 | 0.0 | 3.5 | 0.00 | 0.01 | 0.01 | 87 | 1016.0 |
| 20260508031549 | 66 | 360 | 0.0 | 3.5 | 0.00 | 0.01 | 0.01 | 87 | 1016.5 |
| 20260508030051 | 66 | 53 | 1.7 | 7.0 | 0.00 | 0.01 | 0.01 | 87 | 1016.3 |
| 20260508024557 | 66 | 333 | 0.0 | 3.5 | 0.00 | 0.01 | 0.01 | 87 | 1016.4 |
| 20260508023050 | 66 | 45 | 0.9 | 5.2 | 0.00 | 0.01 | 0.01 | 86 | 1016.1 |
| 20260508021550 | 66 | 0 | 0.0 | 5.2 | 0.00 | 0.01 | 0.01 | 85 | 1016.3 |
| 20260508020044 | 67 | 44 | 1.7 | 5.2 | 0.00 | 0.01 | 0.01 | 85 | 1016.2 |
| 20260508014546 | 67 | 0 | 0.0 | 7.0 | 0.00 | 0.01 | 0.01 | 85 | 1015.9 |
| 20260508013043 | 68 | 63 | 0.9 | 7.0 | 0.00 | 0.01 | 0.01 | 85 | 1015.6 |
| 20260508011557 | 68 | 79 | 0.9 | 7.8 | 0.00 | 0.01 | 0.01 | 84 | 1015.3 |
| 20260508010046 | 69 | 71 | 1.7 | 7.0 | 0.00 | 0.01 | 0.01 | 84 | 1015.4 |
| 20260508004556 | 70 | 22 | 0.9 | 7.0 | 0.00 | 0.01 | 0.01 | 83 | 1015.4 |
| 20260508003048 | 70 | 78 | 1.7 | 9.6 | 0.00 | 0.01 | 0.01 | 83 | 1015.4 |
| 20260508001548 | 71 | 55 | 2.6 | 8.7 | 0.00 | 0.01 | 0.01 | 83 | 1015.4 |
| 20260508000052 | 72 | 15 | 1.7 | 7.0 | 0.00 | 0.01 | 0.01 | 82 | 1015.5 |
| 20260507234553 | 73 | 77 | 0.0 | 7.0 | 0.00 | 0.01 | 0.01 | 82 | 1015.4 |
| 20260507233052 | 73 | 79 | 0.9 | 7.8 | 0.00 | 0.01 | 0.01 | 81 | 1015.3 |
| 20260507231551 | 74 | 67 | 2.6 | 7.8 | 0.00 | 0.01 | 0.01 | 81 | 1015.2 |
| 20260507230054 | 74 | 340 | 0.9 | 5.2 | 0.00 | 0.01 | 0.01 | 82 | 1015.2 |
| 20260507224550 | 75 | 331 | 1.7 | 7.8 | 0.00 | 0.01 | 0.01 | 82 | 1015.3 |
| 20260507223048 | 75 | 343 | 1.7 | 9.6 | 0.00 | 0.01 | 0.01 | 81 | 1015.2 |
| 20260507221553 | 76 | 351 | 1.7 | 7.0 | 0.00 | 0.01 | 0.01 | 80 | 1015.2 |
| 20260507220056 | 75 | 313 | 3.5 | 10.4 | 0.00 | 0.01 | 0.01 | 81 | 1015.2 |
| 20260507214548 | 76 | 339 | 1.7 | 9.6 | 0.00 | 0.01 | 0.01 | 82 | 1015.2 |
| 20260507213050 | 75 | 5 | 1.7 | 8.7 | 0.00 | 0.01 | 0.01 | 83 | 1015.2 |
| 20260507211550 | 76 | 112 | 2.6 | 9.6 | 0.00 | 0.01 | 0.01 | 82 | 1015.2 |
| 20260507210050 | 75 | 85 | 2.6 | 7.8 | 0.00 | 0.01 | 0.01 | 82 | 1015.2 |
| 20260507204552 | 74 | 319 | 1.7 | 8.7 | 0.00 | 0.01 | 0.01 | 84 | 1015.3 |
| 20260507203046 | 74 | 0 | 1.7 | 7.0 | 0.00 | 0.01 | 0.01 | 84 | 1015.4 |
| 20260507201558 | 74 | 333 | 2.6 | 7.8 | 0.00 | 0.01 | 0.01 | 83 | 1015.4 |
| 20260507200054 | 74 | 337 | 0.9 | 8.7 | 0.00 | 0.01 | 0.01 | 85 | 1015.3 |
| 20260507194547 | 74 | 13 | 2.6 | 8.7 | 0.00 | 0.01 | 0.01 | 84 | 1015.5 |
| 20260507193052 | 74 | 310 | 2.6 | 10.4 | 0.00 | 0.01 | 0.01 | 84 | 1015.6 |
| 20260507191554 | 74 | 52 | 2.6 | 8.7 | 0.00 | 0.01 | 0.01 | 85 | 1015.7 |
| 20260507190052 | 74 | 294 | 1.7 | 7.0 | 0.00 | 0.01 | 0.01 | 86 | 1015.9 |
| 20260507184554 | 74 | 70 | 1.7 | 7.0 | 0.00 | 0.01 | 0.01 | 86 | 1016.1 |
| 20260507183050 | 73 | 91 | 3.5 | 9.6 | 0.00 | 0.01 | 0.01 | 86 | 1016.2 |
| 20260507181549 | 72 | 288 | 2.6 | 7.0 | 0.00 | 0.01 | 0.01 | 88 | 1016.2 |
| 20260507180049 | 72 | 355 | 1.7 | 7.0 | 0.00 | 0.01 | 0.01 | 88 | 1016.5 |
| 20260507174559 | 71 | 38 | 1.7 | 8.7 | 0.00 | 0.01 | 0.01 | 87 | 1016.3 |
| 20260507173051 | 71 | 44 | 2.6 | 7.8 | 0.00 | 0.01 | 0.01 | 89 | 1016.3 |
| 20260507171601 | 71 | 74 | 2.6 | 7.0 | 0.00 | 0.01 | 0.01 | 89 | 1016.1 |
| 20260507170052 | 69 | 321 | 1.7 | 8.7 | 0.00 | 0.01 | 0.01 | 90 | 1016.4 |
| 20260507164552 | 69 | 0 | 0.9 | 7.0 | 0.00 | 0.01 | 0.01 | 91 | 1016.5 |
| 20260507163048 | 67 | 347 | 1.7 | 6.1 | 0.00 | 0.01 | 0.01 | 91 | 1016.7 |
| 20260507161626 | 67 | 19 | 0.9 | 7.0 | 0.00 | 0.01 | 0.01 | 91 | 1016.6 |
| 20260507160055 | 66 | 0 | 2.6 | 7.0 | 0.00 | 0.01 | 0.01 | 91 | 1016.4 |
| 20260507154554 | 65 | 50 | 1.7 | 7.0 | 0.00 | 0.01 | 0.01 | 92 | 1016.4 |
| 20260507153048 | 64 | 318 | 1.7 | 7.0 | 0.00 | 0.01 | 0.01 | 92 | 1016.8 |
| 20260507151548 | 64 | 16 | 1.7 | 7.0 | 0.00 | 0.01 | 0.01 | 92 | 1016.7 |
| 20260507150051 | 63 | 71 | 0.9 | 6.1 | 0.00 | 0.01 | 0.01 | 94 | 1016.9 |
| 20260507144614 | 62 | 24 | 0.9 | 6.1 | 0.00 | 0.01 | 0.01 | 93 | 1016.8 |
| 20260507143052 | 62 | 80 | 1.7 | 5.2 | 0.00 | 0.01 | 0.01 | 94 | 1016.7 |
| 20260507141557 | 62 | 56 | 0.0 | 6.1 | 0.00 | 0.01 | 0.01 | 94 | 1016.7 |